User: anonymous   Login
Location: *
(90.0000°N, 180.0000°W)
Time: 08:37:23
(UTC+02:00)
Language:

Cosmos 1825 - Orbit

View from above orbital plane
View from above orbital plane
View from above satellite
View from above satellite

Ground track
Ground track

The orbit data is extracted from the following two-line orbital elements,

1 17566U 87024A   17232.55386585 +.00000815 +00000-0 +37653-4 0  9998
2 17566 082.5033 226.3379 0003998 018.4670 341.6709 15.18764572663321
Epoch (UTC): 20 August 2017 13:17:34
Eccentricity: 0.0003998
inclination: 82.5033°
perigee height: 507 km
apogee height: 512 km
right ascension of ascending node: 226.3379°
argument of perigee: 18.4670°
revolutions per day: 15.18764572
mean anomaly at epoch: 341.6709°
orbit number at epoch: 66332

The dashed part of the orbit path shows where the satellite is in the earth's shadow,  

DLR